Flag for Germany Weather past 2 weeks in Düren, North Rhine-Westphalia, Germany

Now
37 °F

Passing clouds.


Feels Like: 30 °F
Forecast: 36 / 45 °F
Wind: 10 mph from Southwest

Location: Noervenich

Current Time: Mar 2, 2015 at 9:36:44 PM

Latest Report: Mar 2, 2015 at 8:20 PM


Visibility: N/A

Pressure: 29.92 "Hg

Humidity: 75%

Dew point: 30 °F

Location of DürenLocation

Historic Weather in Düren — Graph

°F

Düren temperature yesterday

Maximum temperature yesterday: 52 °F (at 11:20 AM)
Minimum temperature yesterday: 41 °F (at 4:20 AM)
Average temperature yesterday: 46 °F

Past Weeks' High & Low Weather Summary

 TemperatureHumidityPressure
High52 °F (Mar 1, 11:20 AM)100% (Feb 17, 6:20 AM)30.74 "Hg (Feb 17, 6:20 AM)
Low27 °F (Feb 19, 7:20 AM)50% (Feb 28, 1:20 PM)29.36 "Hg (Feb 21, 4:20 AM)
Average40 °F80%29.96 "Hg
* Reported Feb 15 8:20 PM — Mar 2 8:20 PM, Düren, Weather by CustomWeather, © 2015

Note: Actual official high and low records may vary slightly from our data, if they occured in-between our weather recording intervals... More about our weather records

Advertising

Düren weather history for previous 24 hours

 ConditionsComfort  
Time TempWeatherWind HumidityBarometerVisibility
8:20 PM
Mon, Mar 2
37 °FPassing clouds.10 mph75%29.92 "HgN/A
7:20 PM39 °FPassing clouds.10 mph75%29.86 "HgN/A
6:20 PM37 °FSprinkles. Passing clouds.16 mph81%29.83 "HgN/A
5:20 PM39 °FPassing clouds.15 mph81%29.80 "HgN/A
4:20 PM36 °FThunderstorms. Partly sunny.20 mph93%29.77 "Hg5 mi
4:04 PM41 °FThunderstorms. Broken clouds.15 mph81%29.74 "Hg1 mi
3:56 PM41 °FThundershowers. Broken clouds.13 mph81%29.74 "HgN/A
3:20 PM41 °FSprinkles. Broken clouds.21 mph81%29.74 "Hg5 mi
2:20 PM48 °FPartly sunny.17 mph50%29.71 "HgN/A
1:20 PM48 °FScattered clouds.16 mph54%29.71 "HgN/A
12:20 PM46 °FPassing clouds.16 mph57%29.71 "HgN/A
11:20 AM45 °FScattered clouds.18 mph61%29.68 "HgN/A
10:20 AM43 °FScattered clouds.17 mph76%29.68 "HgN/A
9:20 AM39 °FPassing clouds.10 mph87%29.68 "HgN/A
8:20 AM39 °FScattered clouds.10 mph81%29.65 "HgN/A
7:20 AM41 °FBroken clouds.9 mph76%29.59 "HgN/A
6:20 AM41 °FPartly cloudy.10 mph76%29.59 "HgN/A
5:20 AM43 °FPassing clouds.13 mph71%29.56 "HgN/A
4:20 AM43 °FPassing clouds.15 mph71%29.56 "HgN/A
3:20 AM45 °FPassing clouds.15 mph76%29.53 "HgN/A
2:20 AM45 °FPassing clouds.18 mph71%29.50 "HgN/A
1:20 AM46 °FLight rain. Partly cloudy.16 mph87%29.47 "HgN/A
12:20 AM48 °FLight rain. Partly cloudy.9 mph66%29.47 "HgN/A
11:20 PM
Sun, Mar 1
48 °FPassing clouds.7 mph71%29.53 "HgN/A
10:20 PM48 °FPassing clouds.6 mph66%29.56 "HgN/A
9:20 PM46 °FPassing clouds.3 mph71%29.59 "HgN/A
Weather by CustomWeather, © 2015

See weather overviewHow to use our weather pages